Flag for Germany Weather past 2 weeks in Schloss Holte-Stukenbrock, North Rhine-Westphalia, Germany

Now
67 °F

Clear.


Feels Like: 67 °F
Forecast: 60 / 83 °F
Wind: 6 mph from Southeast

Location: Bad Lippspringe

Current Time: Aug 3, 2015 at 5:35:38 AM

Latest Report: Aug 3, 2015 at 5:00 AM


Visibility: 19 mi

Pressure: 30.03 "Hg

Humidity: 50%

Dew point: 47 °F

Location of Schloss Holte-StukenbrockLocation

Historic Weather in Schloss Holte-Stukenbrock — Graph

°F

Schloss Holte-Stukenbrock temperature yesterday

Maximum temperature yesterday: 78 °F (at 5:00 PM)
Minimum temperature yesterday: 48 °F (at 6:00 AM)
Average temperature yesterday: 66 °F

Past Weeks' High & Low Weather Summary

 TemperatureHumidityPressure
High78 °F (Aug 2, 5:00 PM)100% (Jul 20, 5:00 AM)30.16 "Hg (Jul 20, 5:00 AM)
Low43 °F (Jul 31, 5:00 AM)30% (Aug 2, 4:00 PM)29.50 "Hg (Jul 25, 11:00 AM)
Average63 °F73%29.88 "Hg
* Reported Jul 19 4:00 AM — Aug 3 4:00 AM, Schloss Holte-Stukenbrock, Weather by CustomWeather, © 2015

Note: Actual official high and low records may vary slightly from our data, if they occured in-between our weather recording intervals... More about our weather records

Advertising

Schloss Holte-Stukenbrock weather history for previous 24 hours

 ConditionsComfort  
Time TempWeatherWind HumidityBarometerVisibility
4:00 AM
Mon, Aug 3
68 °FClear.8 mph46%30.04 "Hg22 mi
3:00 AM68 °FClear.6 mph46%30.06 "Hg22 mi
2:00 AM67 °FClear.6 mph44%30.06 "Hg22 mi
1:00 AM67 °FClear.6 mph43%30.08 "Hg10 mi
11:00 PM
Sun, Aug 2
67 °FClear.3 mph48%30.08 "Hg22 mi
10:00 PM68 °FClear.3 mph50%30.09 "Hg22 mi
9:00 PM69 °FOvercast.2 mph56%30.08 "Hg18 mi
8:00 PM71 °FPartly sunny.3 mph53%30.09 "Hg18 mi
7:00 PM76 °FPartly sunny.2 mph37%30.08 "Hg22 mi
6:00 PM78 °FPassing clouds.1 mph32%30.09 "Hg31 mi
5:00 PM78 °FSunny.1 mph36%30.10 "Hg22 mi
4:00 PM77 °FSunny.2 mph30%30.11 "Hg19 mi
3:00 PM74 °FPassing clouds.2 mph35%30.13 "Hg18 mi
2:00 PM74 °FSunny.2 mph42%30.14 "Hg14 mi
1:00 PM72 °FSunny.1 mph44%30.15 "Hg15 mi
12:00 PM70 °FSunny.2 mph47%30.16 "Hg16 mi
11:00 AM68 °FSunny.2 mph50%30.16 "Hg22 mi
10:00 AM65 °FSunny.1 mph61%30.15 "Hg13 mi
9:00 AM61 °FSunny.1 mph71%30.14 "Hg9 mi
8:00 AM57 °FSunny.1 mph81%30.14 "Hg9 mi
7:00 AM50 °FFog.1 mph96%30.14 "Hg4 mi
6:00 AM48 °FFog.No wind98%30.13 "Hg4 mi
5:00 AM49 °FPassing clouds.1 mph98%30.11 "Hg7 mi
Weather by CustomWeather, © 2015

See weather overviewHow to use our weather pages